^^
Station Historical Data
Daily Summary for April 24, 2019 Units:  English    Metric   Both
« Previous Day
Next Day »
Daily Weekly Monthly Yearly Custom
  High: Low: Average:
Temperature: 69.0 °F 46.0 °F 57.3 °F
Dew Point: 45.5 °F 27.8 °F 38.4 °F
Humidity: 78% 32% 52%
Wind Speed: 26.0mph 0.0mph 6.9mph
Wind Gust: 29.0mph - -
Wind- - WNW
Pressure: 29.76 in 29.61 in -
Precipitation: 0.00 in    
Historical Graphs
 
 
Tabular Data for April 24, 2019
Time Temperature Dew Point Pressure Wind Wind Speed Wind Gust Humidity Rainfall Rate (Hourly) solar Conditions
00:04 55.4 °F 40.9 °F 29.64 in West 6.0 mph 9.0 mph 58% 0.00 in 0.00 W/m2
00:09 55.5 °F 41.0 °F 29.63 in West 6.0 mph 9.0 mph 58% 0.00 in 0.00 W/m2
00:14 55.4 °F 40.9 °F 29.63 in West 7.0 mph 7.0 mph 58% 0.00 in 0.00 W/m2
00:19 55.2 °F 40.7 °F 29.63 in West 6.0 mph 8.0 mph 58% 0.00 in 0.00 W/m2
00:24 55.1 °F 41.0 °F 29.63 in West 6.0 mph 8.0 mph 59% 0.00 in 0.00 W/m2
00:29 55.0 °F 40.9 °F 29.63 in WNW 5.0 mph 8.0 mph 59% 0.00 in 0.00 W/m2
00:34 55.1 °F 41.9 °F 29.63 in WNW 8.0 mph 8.0 mph 61% 0.00 in 0.00 W/m2
00:39 55.4 °F 40.9 °F 29.63 in WSW 8.0 mph 11.0 mph 58% 0.00 in 0.00 W/m2
00:44 55.4 °F 41.3 °F 29.63 in West 9.0 mph 11.0 mph 59% 0.00 in 0.00 W/m2
00:49 55.0 °F 40.9 °F 29.63 in West 5.0 mph 10.0 mph 59% 0.00 in 0.00 W/m2
00:54 54.4 °F 40.8 °F 29.63 in West 7.0 mph 9.0 mph 60% 0.00 in 0.00 W/m2
00:59 54.2 °F 41.0 °F 29.63 in West 6.0 mph 8.0 mph 61% 0.00 in 0.00 W/m2
01:04 53.9 °F 40.8 °F 29.63 in West 4.0 mph 8.0 mph 61% 0.00 in 0.00 W/m2
01:09 53.5 °F 40.8 °F 29.63 in WSW 5.0 mph 7.0 mph 62% 0.00 in 0.00 W/m2
01:14 53.1 °F 40.4 °F 29.64 in West 3.0 mph 6.0 mph 62% 0.00 in 0.00 W/m2
01:19 52.7 °F 40.5 °F 29.63 in West 4.0 mph 5.0 mph 63% 0.00 in 0.00 W/m2
01:24 52.3 °F 40.5 °F 29.63 in West 1.0 mph 5.0 mph 64% 0.00 in 0.00 W/m2
01:29 52.2 °F 40.4 °F 29.64 in West 1.0 mph 4.0 mph 64% 0.00 in 0.00 W/m2
01:34 52.2 °F 40.4 °F 29.64 in West 2.0 mph 3.0 mph 64% 0.00 in 0.00 W/m2
01:39 52.2 °F 40.4 °F 29.64 in West 4.0 mph 4.0 mph 64% 0.00 in 0.00 W/m2
01:44 52.5 °F 40.7 °F 29.63 in West 3.0 mph 4.0 mph 64% 0.00 in 0.00 W/m2
01:49 52.4 °F 40.2 °F 29.64 in West 3.0 mph 4.0 mph 63% 0.00 in 0.00 W/m2
01:54 52.1 °F 40.3 °F 29.63 in West 3.0 mph 4.0 mph 64% 0.00 in 0.00 W/m2
01:59 51.9 °F 40.1 °F 29.63 in West 2.0 mph 4.0 mph 64% 0.00 in 0.00 W/m2
02:04 51.6 °F 40.2 °F 29.63 in West 3.0 mph 4.0 mph 65% 0.00 in 0.00 W/m2
02:09 51.3 °F 39.9 °F 29.63 in Calm   4.0 mph 65% 0.00 in 0.00 W/m2
02:14 51.0 °F 40.0 °F 29.63 in West 1.0 mph 4.0 mph 66% 0.00 in 0.00 W/m2
02:19 50.9 °F 39.9 °F 29.63 in Calm   2.0 mph 66% 0.00 in 0.00 W/m2
02:24 50.8 °F 40.2 °F 29.63 in West 2.0 mph 3.0 mph 67% 0.00 in 0.00 W/m2
02:29 50.9 °F 39.9 °F 29.63 in West 2.0 mph 3.0 mph 66% 0.00 in 0.00 W/m2
02:34 50.8 °F 39.8 °F 29.63 in West 5.0 mph 5.0 mph 66% 0.00 in 0.00 W/m2
02:39 50.5 °F 39.6 °F 29.63 in WSW 4.0 mph 5.0 mph 66% 0.00 in 0.00 W/m2
02:44 50.3 °F 39.8 °F 29.63 in West 2.0 mph 5.0 mph 67% 0.00 in 0.00 W/m2
02:49 50.2 °F 39.7 °F 29.63 in West 3.0 mph 4.0 mph 67% 0.00 in 0.00 W/m2
02:54 50.5 °F 39.9 °F 29.63 in West 2.0 mph 4.0 mph 67% 0.00 in 0.00 W/m2
02:59 50.5 °F 39.9 °F 29.63 in West 2.0 mph 3.0 mph 67% 0.00 in 0.00 W/m2
03:04 50.7 °F 40.1 °F 29.62 in West 4.0 mph 4.0 mph 67% 0.00 in 0.00 W/m2
03:09 50.9 °F 40.3 °F 29.62 in WNW 3.0 mph 4.0 mph 67% 0.00 in 0.00 W/m2
03:14 50.9 °F 39.9 °F 29.62 in WNW 3.0 mph 4.0 mph 66% 0.00 in 0.00 W/m2
03:19 50.8 °F 40.2 °F 29.62 in WNW 3.0 mph 4.0 mph 67% 0.00 in 0.00 W/m2
03:24 50.7 °F 40.1 °F 29.62 in WNW 2.0 mph 4.0 mph 67% 0.00 in 0.00 W/m2
03:29 50.5 °F 39.9 °F 29.62 in WNW 1.0 mph 3.0 mph 67% 0.00 in 0.00 W/m2
03:34 50.4 °F 39.9 °F 29.62 in WNW 2.0 mph 3.0 mph 67% 0.00 in 0.00 W/m2
03:39 50.6 °F 40.0 °F 29.62 in WNW 3.0 mph 3.0 mph 67% 0.00 in 0.00 W/m2
03:44 50.7 °F 40.1 °F 29.62 in WNW 2.0 mph 3.0 mph 67% 0.00 in 0.00 W/m2
03:49 50.7 °F 39.7 °F 29.62 in WNW 2.0 mph 3.0 mph 66% 0.00 in 0.00 W/m2
03:54 50.6 °F 39.7 °F 29.62 in WNW 1.0 mph 2.0 mph 66% 0.00 in 0.00 W/m2
03:59 50.5 °F 39.6 °F 29.62 in WNW 1.0 mph 2.0 mph 66% 0.00 in 0.00 W/m2
04:04 50.4 °F 39.9 °F 29.62 in WNW 1.0 mph 2.0 mph 67% 0.00 in 0.00 W/m2
04:09 50.4 °F 39.9 °F 29.62 in WNW 2.0 mph 2.0 mph 67% 0.00 in 0.00 W/m2
04:14 50.3 °F 39.8 °F 29.62 in WNW 1.0 mph 2.0 mph 67% 0.00 in 0.00 W/m2
04:19 50.0 °F 39.5 °F 29.62 in WNW 1.0 mph 2.0 mph 67% 0.00 in 0.00 W/m2
04:24 49.6 °F 39.5 °F 29.62 in WNW 1.0 mph 2.0 mph 68% 0.00 in 0.00 W/m2
04:29 49.4 °F 39.7 °F 29.62 in WNW 1.0 mph 2.0 mph 69% 0.00 in 0.00 W/m2
04:34 49.2 °F 39.5 °F 29.62 in WNW 2.0 mph 3.0 mph 69% 0.00 in 0.00 W/m2
04:39 49.0 °F 39.6 °F 29.62 in WNW 2.0 mph 3.0 mph 70% 0.00 in 0.00 W/m2
04:44 49.0 °F 39.6 °F 29.62 in WSW 3.0 mph 4.0 mph 70% 0.00 in 0.00 W/m2
04:49 49.1 °F 39.7 °F 29.62 in WSW 2.0 mph 4.0 mph 70% 0.00 in 0.00 W/m2
04:54 49.2 °F 39.8 °F 29.62 in WSW 1.0 mph 4.0 mph 70% 0.00 in 0.00 W/m2
04:59 49.1 °F 39.7 °F 29.62 in WSW 3.0 mph 4.0 mph 70% 0.00 in 0.00 W/m2
05:04 49.0 °F 39.6 °F 29.62 in SW 4.0 mph 4.0 mph 70% 0.00 in 0.00 W/m2
05:09 48.8 °F 39.8 °F 29.62 in SW 3.0 mph 4.0 mph 71% 0.00 in 0.00 W/m2
05:14 48.6 °F 39.6 °F 29.62 in SW 3.0 mph 4.0 mph 71% 0.00 in 0.00 W/m2
05:19 48.4 °F 39.8 °F 29.62 in SW 1.0 mph 3.0 mph 72% 0.00 in 0.00 W/m2
05:24 48.2 °F 39.6 °F 29.61 in SW 1.0 mph 3.0 mph 72% 0.00 in 0.00 W/m2
05:29 48.2 °F 39.9 °F 29.61 in Calm   2.0 mph 73% 0.00 in 0.00 W/m2
05:34 48.2 °F 39.9 °F 29.61 in SW 1.0 mph 2.0 mph 73% 0.00 in 0.00 W/m2
05:39 48.4 °F 40.1 °F 29.62 in SW 1.0 mph 3.0 mph 73% 0.00 in 0.00 W/m2
05:44 48.5 °F 40.2 °F 29.62 in SW 1.0 mph 3.0 mph 73% 0.00 in 0.00 W/m2
05:49 48.7 °F 40.4 °F 29.61 in SW 2.0 mph 3.0 mph 73% 0.00 in 0.00 W/m2
05:54 48.8 °F 40.5 °F 29.61 in SW 3.0 mph 4.0 mph 73% 0.00 in 0.00 W/m2
05:59 48.8 °F 40.5 °F 29.62 in WSW 2.0 mph 4.0 mph 73% 0.00 in 0.00 W/m2
06:04 48.7 °F 40.4 °F 29.61 in SW 3.0 mph 4.0 mph 73% 0.00 in 0.00 W/m2
06:09 48.7 °F 40.1 °F 29.61 in SW 2.0 mph 4.0 mph 72% 0.00 in 0.00 W/m2
06:14 48.6 °F 40.0 °F 29.61 in SW 3.0 mph 4.0 mph 72% 0.00 in 0.00 W/m2
06:19 48.6 °F 40.0 °F 29.61 in SW 2.0 mph 3.0 mph 72% 0.00 in 0.00 W/m2
06:24 48.6 °F 40.0 °F 29.61 in SW 1.0 mph 3.0 mph 72% 0.00 in 0.00 W/m2
06:29 48.5 °F 39.9 °F 29.61 in SW 2.0 mph 3.0 mph 72% 0.00 in 0.00 W/m2
06:34 48.5 °F 40.2 °F 29.62 in WSW 3.0 mph 3.0 mph 73% 0.00 in 0.00 W/m2
06:39 48.4 °F 39.8 °F 29.62 in WNW 4.0 mph 5.0 mph 72% 0.00 in 0.00 W/m2
06:44 47.8 °F 39.6 °F 29.63 in NW 3.0 mph 12.0 mph 73% 0.00 in 5.00 W/m2
06:49 46.7 °F 39.2 °F 29.63 in NNW 5.0 mph 12.0 mph 75% 0.00 in 9.00 W/m2
06:54 46.1 °F 39.0 °F 29.62 in NNW 3.0 mph 8.0 mph 76% 0.00 in 14.00 W/m2
06:59 46.0 °F 39.2 °F 29.63 in NW 5.0 mph 8.0 mph 77% 0.00 in 21.00 W/m2
07:04 46.1 °F 39.6 °F 29.63 in WNW 3.0 mph 7.0 mph 78% 0.00 in 26.00 W/m2
07:09 46.4 °F 39.6 °F 29.62 in NW 3.0 mph 5.0 mph 77% 0.00 in 35.00 W/m2
07:14 47.3 °F 40.5 °F 29.63 in NW 3.0 mph 5.0 mph 77% 0.00 in 35.00 W/m2
07:19 47.6 °F 40.1 °F 29.62 in NW 2.0 mph 5.0 mph 75% 0.00 in 39.00 W/m2
07:24 47.8 °F 40.3 °F 29.62 in NW 1.0 mph 3.0 mph 75% 0.00 in 42.00 W/m2
07:29 48.1 °F 40.2 °F 29.63 in NW 1.0 mph 3.0 mph 74% 0.00 in 42.00 W/m2
07:34 48.3 °F 40.0 °F 29.62 in NW 2.0 mph 3.0 mph 73% 0.00 in 44.00 W/m2
07:39 48.7 °F 40.4 °F 29.62 in NW 4.0 mph 4.0 mph 73% 0.00 in 51.00 W/m2
07:44 48.8 °F 40.5 °F 29.63 in West 3.0 mph 4.0 mph 73% 0.00 in 63.00 W/m2
07:49 48.8 °F 40.9 °F 29.63 in West 4.0 mph 5.0 mph 74% 0.00 in 70.00 W/m2
07:54 49.2 °F 41.6 °F 29.64 in WNW 3.0 mph 5.0 mph 75% 0.00 in 83.00 W/m2
07:59 49.7 °F 42.4 °F 29.64 in WNW 4.0 mph 5.0 mph 76% 0.00 in 98.00 W/m2
08:04 50.1 °F 42.1 °F 29.64 in West 5.0 mph 5.0 mph 74% 0.00 in 179.00 W/m2
08:09 50.4 °F 42.1 °F 29.64 in WSW 4.0 mph 6.0 mph 73% 0.00 in 179.00 W/m2
08:14 50.6 °F 42.3 °F 29.64 in WSW 4.0 mph 6.0 mph 73% 0.00 in 181.00 W/m2
08:19 50.8 °F 42.5 °F 29.65 in West 3.0 mph 6.0 mph 73% 0.00 in 199.00 W/m2
08:24 50.9 °F 42.6 °F 29.65 in West 4.0 mph 7.0 mph 73% 0.00 in 172.00 W/m2
08:29 51.0 °F 43.0 °F 29.65 in West 4.0 mph 7.0 mph 74% 0.00 in 199.00 W/m2
08:34 51.1 °F 42.7 °F 29.65 in WNW 4.0 mph 7.0 mph 73% 0.00 in 199.00 W/m2
08:39 51.3 °F 42.9 °F 29.66 in WNW 3.0 mph 6.0 mph 73% 0.00 in 213.00 W/m2
08:44 51.3 °F 42.9 °F 29.66 in WNW 4.0 mph 6.0 mph 73% 0.00 in 181.00 W/m2
08:49 51.4 °F 43.0 °F 29.66 in WNW 3.0 mph 6.0 mph 73% 0.00 in 206.00 W/m2
08:54 51.6 °F 43.6 °F 29.66 in WNW 3.0 mph 5.0 mph 74% 0.00 in 262.00 W/m2
08:59 52.2 °F 43.4 °F 29.66 in NW 4.0 mph 7.0 mph 72% 0.00 in 322.00 W/m2
09:04 53.1 °F 43.2 °F 29.66 in NW 6.0 mph 10.0 mph 69% 0.00 in 345.00 W/m2
09:09 53.7 °F 43.4 °F 29.66 in WNW 4.0 mph 10.0 mph 68% 0.00 in 318.00 W/m2
09:14 54.3 °F 42.4 °F 29.65 in NW 4.0 mph 10.0 mph 64% 0.00 in 330.00 W/m2
09:19 54.7 °F 42.3 °F 29.65 in WNW 7.0 mph 10.0 mph 63% 0.00 in 348.00 W/m2
09:24 55.0 °F 42.6 °F 29.65 in West 7.0 mph 8.0 mph 63% 0.00 in 336.00 W/m2
09:29 55.4 °F 42.6 °F 29.65 in WNW 7.0 mph 9.0 mph 62% 0.00 in 329.00 W/m2
09:34 55.7 °F 42.5 °F 29.66 in West 7.0 mph 9.0 mph 61% 0.00 in 322.00 W/m2
09:39 56.0 °F 42.7 °F 29.66 in WNW 9.0 mph 11.0 mph 61% 0.00 in 288.00 W/m2
09:44 56.0 °F 41.9 °F 29.66 in WNW 12.0 mph 13.0 mph 59% 0.00 in 302.00 W/m2
09:49 56.3 °F 42.6 °F 29.66 in NW 9.0 mph 13.0 mph 60% 0.00 in 283.00 W/m2
09:54 56.0 °F 41.4 °F 29.66 in NW 8.0 mph 13.0 mph 58% 0.00 in 381.00 W/m2
09:59 56.0 °F 41.4 °F 29.65 in NW 8.0 mph 13.0 mph 58% 0.00 in 468.00 W/m2
10:04 56.6 °F 42.0 °F 29.65 in WNW 6.0 mph 12.0 mph 58% 0.00 in 483.00 W/m2
10:09 56.9 °F 40.9 °F 29.65 in WNW 12.0 mph 12.0 mph 55% 0.00 in 485.00 W/m2
10:14 57.1 °F 40.6 °F 29.65 in NW 6.0 mph 12.0 mph 54% 0.00 in 526.00 W/m2
10:19 57.6 °F 41.5 °F 29.65 in NW 8.0 mph 13.0 mph 55% 0.00 in 480.00 W/m2
10:24 58.3 °F 41.2 °F 29.65 in NW 10.0 mph 13.0 mph 53% 0.00 in 564.00 W/m2
10:29 58.6 °F 41.0 °F 29.65 in NW 8.0 mph 12.0 mph 52% 0.00 in 575.00 W/m2
10:34 59.0 °F 40.9 °F 29.65 in WNW 9.0 mph 12.0 mph 51% 0.00 in 568.00 W/m2
10:39 59.2 °F 41.6 °F 29.65 in NW 7.0 mph 13.0 mph 52% 0.00 in 633.00 W/m2
10:44 60.1 °F 41.9 °F 29.65 in NNW 7.0 mph 14.0 mph 51% 0.00 in 640.00 W/m2
10:49 60.4 °F 41.7 °F 29.65 in NW 10.0 mph 15.0 mph 50% 0.00 in 619.00 W/m2
10:54 60.2 °F 41.5 °F 29.66 in WNW 8.0 mph 16.0 mph 50% 0.00 in 606.00 W/m2
10:59 60.7 °F 41.4 °F 29.66 in WNW 9.0 mph 16.0 mph 49% 0.00 in 582.00 W/m2
11:04 61.0 °F 42.2 °F 29.66 in NW 14.0 mph 14.0 mph 50% 0.00 in 561.00 W/m2
11:09 61.1 °F 41.8 °F 29.66 in NW 10.0 mph 14.0 mph 49% 0.00 in 554.00 W/m2
11:14 61.6 °F 42.2 °F 29.66 in NNW 7.0 mph 14.0 mph 49% 0.00 in 564.00 W/m2
11:19 61.7 °F 42.3 °F 29.66 in NNW 13.0 mph 14.0 mph 49% 0.00 in 596.00 W/m2
11:24 62.2 °F 41.7 °F 29.66 in NW 11.0 mph 14.0 mph 47% 0.00 in 636.00 W/m2
11:29 62.2 °F 41.7 °F 29.66 in NW 8.0 mph 14.0 mph 47% 0.00 in 687.00 W/m2
11:34 62.5 °F 42.0 °F 29.66 in NNW 9.0 mph 14.0 mph 47% 0.00 in 722.00 W/m2
11:39 62.5 °F 39.7 °F 29.66 in NW 11.0 mph 14.0 mph 43% 0.00 in 752.00 W/m2
11:44 62.9 °F 41.8 °F 29.66 in NW 10.0 mph 17.0 mph 46% 0.00 in 763.00 W/m2
11:49 63.1 °F 42.5 °F 29.65 in NW 11.0 mph 17.0 mph 47% 0.00 in 773.00 W/m2
11:54 63.3 °F 42.2 °F 29.65 in NNW 12.0 mph 15.0 mph 46% 0.00 in 754.00 W/m2
11:59 63.5 °F 41.8 °F 29.65 in NW 9.0 mph 17.0 mph 45% 0.00 in 796.00 W/m2
12:04 63.8 °F 41.5 °F 29.65 in NNW 11.0 mph 17.0 mph 44% 0.00 in 800.00 W/m2
12:09 64.1 °F 42.9 °F 29.65 in NNW 12.0 mph 17.0 mph 46% 0.00 in 803.00 W/m2
12:14 64.4 °F 42.0 °F 29.65 in NW 12.0 mph 18.0 mph 44% 0.00 in 805.00 W/m2
12:19 64.8 °F 41.8 °F 29.65 in NW 15.0 mph 20.0 mph 43% 0.00 in 810.00 W/m2
12:24 64.3 °F 41.9 °F 29.65 in NNW 10.0 mph 20.0 mph 44% 0.00 in 816.00 W/m2
12:29 64.5 °F 43.3 °F 29.65 in North 9.0 mph 15.0 mph 46% 0.00 in 824.00 W/m2
12:34 65.3 °F 44.0 °F 29.65 in North 11.0 mph 18.0 mph 46% 0.00 in 828.00 W/m2
12:39 66.2 °F 43.6 °F 29.65 in NNW 13.0 mph 18.0 mph 44% 0.00 in 833.00 W/m2
12:44 66.0 °F 44.0 °F 29.65 in NNW 7.0 mph 16.0 mph 45% 0.00 in 833.00 W/m2
12:49 66.5 °F 43.9 °F 29.65 in NNW 14.0 mph 16.0 mph 44% 0.00 in 842.00 W/m2
12:54 66.0 °F 42.2 °F 29.65 in NW 6.0 mph 14.0 mph 42% 0.00 in 847.00 W/m2
12:59 65.8 °F 42.7 °F 29.65 in NW 14.0 mph 16.0 mph 43% 0.00 in 847.00 W/m2
13:04 65.9 °F 42.8 °F 29.65 in WNW 9.0 mph 16.0 mph 43% 0.00 in 851.00 W/m2
13:09 66.3 °F 44.3 °F 29.65 in NW 7.0 mph 17.0 mph 45% 0.00 in 854.00 W/m2
13:14 66.5 °F 43.3 °F 29.65 in NW 15.0 mph 18.0 mph 43% 0.00 in 856.00 W/m2
13:19 66.1 °F 42.9 °F 29.65 in NW 8.0 mph 18.0 mph 43% 0.00 in 860.00 W/m2
13:24 66.2 °F 41.2 °F 29.65 in NW 5.0 mph 16.0 mph 40% 0.00 in 863.00 W/m2
13:29 67.0 °F 42.5 °F 29.65 in WNW 12.0 mph 17.0 mph 41% 0.00 in 861.00 W/m2
13:34 67.0 °F 41.9 °F 29.65 in WNW 8.0 mph 17.0 mph 40% 0.00 in 860.00 W/m2
13:39 67.0 °F 45.5 °F 29.65 in NNW 9.0 mph 17.0 mph 46% 0.00 in 860.00 W/m2
13:44 68.1 °F 42.9 °F 29.65 in NW 18.0 mph 20.0 mph 40% 0.00 in 858.00 W/m2
13:49 68.2 °F 43.6 °F 29.65 in NNW 4.0 mph 20.0 mph 41% 0.00 in 865.00 W/m2
13:54 68.5 °F 43.2 °F 29.65 in West 9.0 mph 19.0 mph 40% 0.00 in 865.00 W/m2
13:59 68.2 °F 41.6 °F 29.64 in West 10.0 mph 20.0 mph 38% 0.00 in 870.00 W/m2
14:04 67.7 °F 41.2 °F 29.64 in NW 18.0 mph 20.0 mph 38% 0.00 in 868.00 W/m2
14:09 67.6 °F 41.7 °F 29.64 in NW 9.0 mph 21.0 mph 39% 0.00 in 868.00 W/m2
14:14 67.6 °F 42.4 °F 29.65 in NW 7.0 mph 21.0 mph 40% 0.00 in 884.00 W/m2
14:19 67.9 °F 42.0 °F 29.65 in NW 10.0 mph 19.0 mph 39% 0.00 in 944.00 W/m2
14:24 67.3 °F 40.8 °F 29.64 in West 10.0 mph 20.0 mph 38% 0.00 in 230.00 W/m2
14:29 66.6 °F 41.5 °F 29.64 in NNW 8.0 mph 20.0 mph 40% 0.00 in 979.00 W/m2
14:34 68.3 °F 41.7 °F 29.65 in NW 12.0 mph 22.0 mph 38% 0.00 in 1009.00 W/m2
14:39 67.8 °F 39.9 °F 29.65 in NW 14.0 mph 22.0 mph 36% 0.00 in 976.00 W/m2
14:44 66.7 °F 39.6 °F 29.65 in NW 8.0 mph 19.0 mph 37% 0.00 in 230.00 W/m2
14:49 68.0 °F 40.0 °F 29.65 in NW 18.0 mph 23.0 mph 36% 0.00 in 911.00 W/m2
14:54 68.8 °F 40.0 °F 29.65 in NW 9.0 mph 23.0 mph 35% 0.00 in 993.00 W/m2
14:59 67.9 °F 38.5 °F 29.65 in NW 11.0 mph 21.0 mph 34% 0.00 in 439.00 W/m2
15:04 67.2 °F 39.3 °F 29.65 in NW 9.0 mph 20.0 mph 36% 0.00 in 313.00 W/m2
15:09 67.4 °F 40.9 °F 29.65 in NW 8.0 mph 18.0 mph 38% 0.00 in 323.00 W/m2
15:14 67.2 °F 40.7 °F 29.65 in NNW 16.0 mph 21.0 mph 38% 0.00 in 759.00 W/m2
15:19 67.3 °F 40.1 °F 29.65 in NNW 13.0 mph 21.0 mph 37% 0.00 in 313.00 W/m2
15:24 67.0 °F 39.1 °F 29.65 in NW 12.0 mph 19.0 mph 36% 0.00 in 308.00 W/m2
15:29 66.8 °F 39.7 °F 29.65 in NW 13.0 mph 19.0 mph 37% 0.00 in 329.00 W/m2
15:34 67.6 °F 41.1 °F 29.65 in NW 13.0 mph 15.0 mph 38% 0.00 in 954.00 W/m2
15:39 68.6 °F 41.3 °F 29.64 in North 11.0 mph 18.0 mph 37% 0.00 in 909.00 W/m2
15:44 68.7 °F 39.2 °F 29.64 in NW 5.0 mph 18.0 mph 34% 0.00 in 860.00 W/m2
15:49 69.0 °F 37.9 °F 29.64 in NW 11.0 mph 18.0 mph 32% 0.00 in 909.00 W/m2
15:54 67.9 °F 37.7 °F 29.64 in NW 11.0 mph 21.0 mph 33% 0.00 in 251.00 W/m2
15:59 67.1 °F 37.8 °F 29.64 in NNW 14.0 mph 21.0 mph 34% 0.00 in 260.00 W/m2
16:04 66.5 °F 37.2 °F 29.64 in NW 20.0 mph 23.0 mph 34% 0.00 in 271.00 W/m2
16:09 66.3 °F 37.1 °F 29.64 in NNW 12.0 mph 23.0 mph 34% 0.00 in 385.00 W/m2
16:14 66.9 °F 39.1 °F 29.64 in NW 18.0 mph 21.0 mph 36% 0.00 in 360.00 W/m2
16:19 67.9 °F 38.5 °F 29.64 in NW 16.0 mph 21.0 mph 34% 0.00 in 772.00 W/m2
16:24 67.3 °F 38.7 °F 29.64 in NNW 14.0 mph 22.0 mph 35% 0.00 in 359.00 W/m2
16:29 68.0 °F 39.3 °F 29.64 in North 20.0 mph 22.0 mph 35% 0.00 in 656.00 W/m2
16:34 67.0 °F 37.7 °F 29.64 in NW 12.0 mph 25.0 mph 34% 0.00 in 297.00 W/m2
16:39 66.3 °F 37.1 °F 29.64 in NW 15.0 mph 25.0 mph 34% 0.00 in 323.00 W/m2
16:44 66.0 °F 38.3 °F 29.64 in NW 15.0 mph 21.0 mph 36% 0.00 in 288.00 W/m2
16:49 66.3 °F 37.8 °F 29.64 in NNW 14.0 mph 22.0 mph 35% 0.00 in 526.00 W/m2
16:54 67.0 °F 37.7 °F 29.64 in NW 13.0 mph 24.0 mph 34% 0.00 in 599.00 W/m2
16:59 67.5 °F 38.1 °F 29.64 in NW 16.0 mph 25.0 mph 34% 0.00 in 575.00 W/m2
17:04 67.4 °F 38.8 °F 29.64 in NNW 20.0 mph 26.0 mph 35% 0.00 in 534.00 W/m2
17:09 67.5 °F 36.6 °F 29.64 in NW 16.0 mph 26.0 mph 32% 0.00 in 466.00 W/m2
17:14 67.0 °F 36.9 °F 29.64 in NNW 26.0 mph 26.0 mph 33% 0.00 in 508.00 W/m2
17:19 66.7 °F 37.4 °F 29.64 in NW 13.0 mph 26.0 mph 34% 0.00 in 483.00 W/m2
17:24 66.3 °F 36.3 °F 29.64 in NW 17.0 mph 29.0 mph 33% 0.00 in 397.00 W/m2
17:29 65.8 °F 35.9 °F 29.64 in NW 12.0 mph 29.0 mph 33% 0.00 in 339.00 W/m2
17:34 65.7 °F 37.3 °F 29.64 in NNW 16.0 mph 24.0 mph 35% 0.00 in 367.00 W/m2
17:39 65.6 °F 35.7 °F 29.64 in NW 8.0 mph 24.0 mph 33% 0.00 in 338.00 W/m2
17:44 65.2 °F 36.1 °F 29.65 in NNW 13.0 mph 19.0 mph 34% 0.00 in 316.00 W/m2
17:49 65.3 °F 34.7 °F 29.65 in NNW 18.0 mph 19.0 mph 32% 0.00 in 260.00 W/m2
17:54 65.0 °F 35.2 °F 29.65 in NW 16.0 mph 18.0 mph 33% 0.00 in 227.00 W/m2
17:59 64.7 °F 35.7 °F 29.65 in NNW 17.0 mph 20.0 mph 34% 0.00 in 234.00 W/m2
18:04 64.6 °F 35.6 °F 29.66 in NW 11.0 mph 20.0 mph 34% 0.00 in 209.00 W/m2
18:09 64.4 °F 36.8 °F 29.66 in NW 15.0 mph 19.0 mph 36% 0.00 in 179.00 W/m2
18:14 64.3 °F 36.0 °F 29.66 in NW 13.0 mph 20.0 mph 35% 0.00 in 160.00 W/m2
18:19 64.1 °F 36.6 °F 29.66 in WNW 15.0 mph 20.0 mph 36% 0.00 in 141.00 W/m2
18:24 63.9 °F 36.4 °F 29.66 in NNW 8.0 mph 18.0 mph 36% 0.00 in 134.00 W/m2
18:29 63.9 °F 36.4 °F 29.66 in WNW 14.0 mph 17.0 mph 36% 0.00 in 134.00 W/m2
18:34 63.9 °F 36.4 °F 29.66 in NW 7.0 mph 17.0 mph 36% 0.00 in 132.00 W/m2
18:39 63.6 °F 35.4 °F 29.67 in NNW 13.0 mph 17.0 mph 35% 0.00 in 118.00 W/m2
18:44 63.5 °F 36.0 °F 29.66 in NW 9.0 mph 16.0 mph 36% 0.00 in 90.00 W/m2
18:49 63.3 °F 35.9 °F 29.67 in NNW 10.0 mph 16.0 mph 36% 0.00 in 84.00 W/m2
18:54 63.1 °F 35.0 °F 29.67 in NW 13.0 mph 19.0 mph 35% 0.00 in 76.00 W/m2
18:59 63.0 °F 35.6 °F 29.67 in NW 10.0 mph 19.0 mph 36% 0.00 in 81.00 W/m2
19:04 62.8 °F 35.4 °F 29.67 in NW 8.0 mph 19.0 mph 36% 0.00 in 72.00 W/m2
19:09 62.6 °F 34.5 °F 29.67 in NNW 11.0 mph 17.0 mph 35% 0.00 in 65.00 W/m2
19:14 62.5 °F 35.2 °F 29.67 in NW 7.0 mph 17.0 mph 36% 0.00 in 70.00 W/m2
19:19 62.3 °F 35.0 °F 29.68 in NW 9.0 mph 14.0 mph 36% 0.00 in 81.00 W/m2
19:24 62.3 °F 35.0 °F 29.68 in NNW 7.0 mph 13.0 mph 36% 0.00 in 79.00 W/m2
19:29 62.2 °F 35.6 °F 29.68 in NW 6.0 mph 13.0 mph 37% 0.00 in 79.00 W/m2
19:34 62.1 °F 35.5 °F 29.68 in NNW 6.0 mph 10.0 mph 37% 0.00 in 98.00 W/m2
19:39 62.3 °F 35.7 °F 29.68 in NW 6.0 mph 10.0 mph 37% 0.00 in 135.00 W/m2
19:44 62.8 °F 36.8 °F 29.68 in NNW 5.0 mph 10.0 mph 38% 0.00 in 167.00 W/m2
19:49 63.2 °F 36.5 °F 29.68 in NW 6.0 mph 9.0 mph 37% 0.00 in 151.00 W/m2
19:54 63.4 °F 36.7 °F 29.67 in NW 6.0 mph 8.0 mph 37% 0.00 in 95.00 W/m2
19:59 63.1 °F 35.0 °F 29.67 in NW 8.0 mph 8.0 mph 35% 0.00 in 51.00 W/m2
20:04 62.4 °F 35.1 °F 29.67 in NW 4.0 mph 8.0 mph 36% 0.00 in 26.00 W/m2
20:09 61.8 °F 35.2 °F 29.68 in NW 4.0 mph 8.0 mph 37% 0.00 in 19.00 W/m2
20:14 61.0 °F 35.2 °F 29.69 in NW 4.0 mph 6.0 mph 38% 0.00 in 26.00 W/m2
20:19 60.5 °F 34.7 °F 29.69 in NNW 6.0 mph 7.0 mph 38% 0.00 in 30.00 W/m2
20:24 60.1 °F 33.7 °F 29.69 in NNW 4.0 mph 7.0 mph 37% 0.00 in 23.00 W/m2
20:29 59.7 °F 32.7 °F 29.69 in NNW 5.0 mph 7.0 mph 36% 0.00 in 21.00 W/m2
20:34 59.3 °F 32.3 °F 29.69 in NNW 4.0 mph 8.0 mph 36% 0.00 in 21.00 W/m2
20:39 58.8 °F 31.9 °F 29.69 in NNW 5.0 mph 8.0 mph 36% 0.00 in 19.00 W/m2
20:44 58.4 °F 32.2 °F 29.69 in North 5.0 mph 7.0 mph 37% 0.00 in 11.00 W/m2
20:49 57.8 °F 31.7 °F 29.69 in NNW 7.0 mph 7.0 mph 37% 0.00 in 0.00 W/m2
20:54 57.3 °F 31.2 °F 29.70 in NNW 5.0 mph 7.0 mph 37% 0.00 in 0.00 W/m2
20:59 56.7 °F 31.4 °F 29.70 in NNW 4.0 mph 7.0 mph 38% 0.00 in 0.00 W/m2
21:04 56.1 °F 30.8 °F 29.70 in NNW 3.0 mph 7.0 mph 38% 0.00 in 0.00 W/m2
21:09 55.6 °F 30.4 °F 29.70 in NNW 3.0 mph 5.0 mph 38% 0.00 in 0.00 W/m2
21:14 55.2 °F 29.4 °F 29.70 in NNW 4.0 mph 6.0 mph 37% 0.00 in 0.00 W/m2
21:19 55.0 °F 29.2 °F 29.71 in NNW 5.0 mph 6.0 mph 37% 0.00 in 0.00 W/m2
21:24 54.9 °F 29.7 °F 29.71 in North 5.0 mph 7.0 mph 38% 0.00 in 0.00 W/m2
21:29 54.6 °F 28.8 °F 29.71 in North 4.0 mph 7.0 mph 37% 0.00 in 0.00 W/m2
21:34 54.5 °F 28.7 °F 29.72 in NNW 4.0 mph 7.0 mph 37% 0.00 in 0.00 W/m2
21:39 54.4 °F 28.6 °F 29.72 in NNW 6.0 mph 6.0 mph 37% 0.00 in 0.00 W/m2
21:44 54.2 °F 29.1 °F 29.72 in North 5.0 mph 7.0 mph 38% 0.00 in 0.00 W/m2
21:49 54.1 °F 29.7 °F 29.72 in North 5.0 mph 7.0 mph 39% 0.00 in 0.00 W/m2
21:54 53.6 °F 29.2 °F 29.72 in North 5.0 mph 7.0 mph 39% 0.00 in 0.00 W/m2
21:59 53.4 °F 28.4 °F 29.73 in NNW 5.0 mph 7.0 mph 38% 0.00 in 0.00 W/m2
22:04 53.4 °F 29.0 °F 29.73 in North 7.0 mph 9.0 mph 39% 0.00 in 0.00 W/m2
22:09 53.6 °F 29.2 °F 29.73 in North 5.0 mph 11.0 mph 39% 0.00 in 0.00 W/m2
22:14 53.2 °F 29.5 °F 29.74 in North 6.0 mph 11.0 mph 40% 0.00 in 0.00 W/m2
22:19 53.0 °F 29.3 °F 29.74 in North 8.0 mph 9.0 mph 40% 0.00 in 0.00 W/m2
22:24 53.0 °F 28.7 °F 29.74 in North 7.0 mph 9.0 mph 39% 0.00 in 0.00 W/m2
22:29 53.2 °F 28.9 °F 29.74 in North 7.0 mph 9.0 mph 39% 0.00 in 0.00 W/m2
22:34 53.3 °F 28.3 °F 29.74 in North 7.0 mph 9.0 mph 38% 0.00 in 0.00 W/m2
22:39 53.3 °F 28.3 °F 29.75 in NNW 5.0 mph 9.0 mph 38% 0.00 in 0.00 W/m2
22:44 53.2 °F 28.2 °F 29.75 in North 4.0 mph 7.0 mph 38% 0.00 in 0.00 W/m2
22:49 52.8 °F 28.5 °F 29.75 in North 5.0 mph 7.0 mph 39% 0.00 in 0.00 W/m2
22:54 52.6 °F 28.9 °F 29.75 in North 4.0 mph 7.0 mph 40% 0.00 in 0.00 W/m2
22:59 52.3 °F 28.7 °F 29.75 in North 6.0 mph 7.0 mph 40% 0.00 in 0.00 W/m2
23:04 51.9 °F 28.3 °F 29.75 in North 4.0 mph 7.0 mph 40% 0.00 in 0.00 W/m2
23:09 51.5 °F 28.6 °F 29.75 in NNW 2.0 mph 7.0 mph 41% 0.00 in 0.00 W/m2
23:14 50.9 °F 28.0 °F 29.75 in NW 3.0 mph 5.0 mph 41% 0.00 in 0.00 W/m2
23:19 50.7 °F 27.8 °F 29.75 in NW 3.0 mph 5.0 mph 41% 0.00 in 0.00 W/m2
23:24 50.4 °F 28.1 °F 29.75 in WNW 3.0 mph 4.0 mph 42% 0.00 in 0.00 W/m2
23:29 49.7 °F 28.1 °F 29.75 in WNW 4.0 mph 5.0 mph 43% 0.00 in 0.00 W/m2
23:34 49.4 °F 28.4 °F 29.75 in WNW 4.0 mph 5.0 mph 44% 0.00 in 0.00 W/m2
23:39 49.1 °F 28.1 °F 29.75 in WNW 3.0 mph 5.0 mph 44% 0.00 in 0.00 W/m2
23:44 48.9 °F 28.5 °F 29.76 in WNW 4.0 mph 4.0 mph 45% 0.00 in 0.00 W/m2
23:49 48.7 °F 28.3 °F 29.76 in WNW 3.0 mph 4.0 mph 45% 0.00 in 0.00 W/m2
23:54 48.3 °F 28.5 °F 29.76 in WNW 3.0 mph 5.0 mph 46% 0.00 in 0.00 W/m2
23:59 47.7 °F 28.9 °F 29.76 in WNW 5.0 mph 5.0 mph 48% 0.00 in 0.00 W/m2
Bismarck, North Dakota, USA
Compliments of Weather Underground - 4 mb